Time,TemperatureF,DewpointF,PressureIn,WindDirection,WindDirectionDegrees,WindSpeedMPH,WindSpeedGustMPH,Humidity,HourlyPrecipIn,Conditions,Clouds,dailyrainin,SoftwareType,DateUTC
2013-05-27 00:02:00,77.0,69.0,30.16,East,93,2.0,7.0,76,0.00,,,0.00,,2013-05-27 04:02:00,
2013-05-27 00:12:00,77.0,69.0,30.16,East,93,2.0,7.0,76,0.00,,,0.00,,2013-05-27 04:12:00,
2013-05-27 00:23:00,77.0,68.0,30.16,ENE,70,3.0,6.0,75,0.00,,,0.00,,2013-05-27 04:23:00,
2013-05-27 00:33:00,77.0,68.0,30.16,East,91,1.0,5.0,75,0.00,,,0.00,,2013-05-27 04:33:00,
2013-05-27 00:43:00,77.0,68.0,30.16,NNE,27,2.0,8.0,75,0.00,,,0.00,,2013-05-27 04:43:00,
2013-05-27 00:52:00,77.0,68.0,30.16,NNE,27,2.0,8.0,75,0.00,,,0.00,,2013-05-27 04:52:00,
2013-05-27 01:02:00,77.0,68.0,30.16,East,79,1.0,6.0,75,0.00,,,0.00,,2013-05-27 05:02:00,
2013-05-27 01:12:00,77.0,68.0,30.16,East,79,1.0,6.0,75,0.00,,,0.00,,2013-05-27 05:12:00,
2013-05-27 01:22:00,77.0,68.0,30.16,ENE,59,2.0,9.0,74,0.00,,,0.00,,2013-05-27 05:22:00,
2013-05-27 01:32:00,77.0,68.0,30.16,East,81,2.0,6.0,75,0.00,,,0.00,,2013-05-27 05:32:00,
2013-05-27 01:42:00,77.0,68.0,30.16,East,81,2.0,6.0,75,0.00,,,0.00,,2013-05-27 05:42:00,
2013-05-27 01:52:00,77.0,68.0,30.15,East,99,3.0,8.0,75,0.00,,,0.00,,2013-05-27 05:52:00,
2013-05-27 02:02:00,77.0,69.0,30.14,ENE,73,1.0,6.0,76,0.00,,,0.00,,2013-05-27 06:02:00,
2013-05-27 02:11:00,77.0,69.0,30.14,ENE,73,1.0,6.0,76,0.00,,,0.00,,2013-05-27 06:11:00,
2013-05-27 02:22:00,77.0,69.0,30.14,East,97,1.0,7.0,76,0.00,,,0.00,,2013-05-27 06:22:00,
2013-05-27 02:32:00,76.0,67.0,30.14,ENE,61,1.0,6.0,75,0.00,,,0.00,,2013-05-27 06:32:00,
2013-05-27 02:42:00,76.0,68.0,30.14,East,94,1.0,5.0,76,0.00,,,0.00,,2013-05-27 06:42:00,
2013-05-27 02:52:00,76.0,68.0,30.14,East,94,1.0,5.0,76,0.00,,,0.00,,2013-05-27 06:52:00,
2013-05-27 03:02:00,76.0,67.0,30.12,ENE,71,1.0,5.0,75,0.00,,,0.00,,2013-05-27 07:02:00,
2013-05-27 03:11:00,76.0,68.0,30.11,East,84,1.0,5.0,77,0.00,,,0.00,,2013-05-27 07:11:00,
2013-05-27 03:21:00,76.0,68.0,30.11,East,84,1.0,5.0,77,0.00,,,0.00,,2013-05-27 07:21:00,
2013-05-27 03:32:00,76.0,69.0,30.11,East,92,2.0,6.0,78,0.00,,,0.00,,2013-05-27 07:32:00,
2013-05-27 03:42:00,76.0,69.0,30.11,East,92,2.0,6.0,78,0.00,,,0.00,,2013-05-27 07:42:00,
2013-05-27 03:53:00,76.0,69.0,30.11,East,98,0.0,5.0,79,0.00,,,0.00,,2013-05-27 07:53:00,
2013-05-27 04:02:00,76.0,68.0,30.11,East,101,2.0,6.0,77,0.00,,,0.00,,2013-05-27 08:02:00,
2013-05-27 04:11:00,76.0,68.0,30.11,East,101,2.0,6.0,77,0.00,,,0.00,,2013-05-27 08:11:00,
2013-05-27 04:22:00,77.0,69.0,30.11,East,86,0.0,6.0,77,0.00,,,0.00,,2013-05-27 08:22:00,
2013-05-27 04:33:00,76.0,68.0,30.10,ENE,77,1.0,5.0,77,0.00,,,0.00,,2013-05-27 08:33:00,
2013-05-27 04:42:00,76.0,69.0,30.10,ENE,63,1.0,4.0,78,0.00,,,0.00,,2013-05-27 08:42:00,
2013-05-27 04:52:00,76.0,69.0,30.10,ENE,63,1.0,4.0,78,0.00,,,0.00,,2013-05-27 08:52:00,
2013-05-27 05:02:00,76.0,68.0,30.10,ENE,61,1.0,6.0,77,0.00,,,0.00,,2013-05-27 09:02:00,
2013-05-27 05:11:00,76.0,68.0,30.10,East,92,1.0,7.0,77,0.00,,,0.00,,2013-05-27 09:11:00,
2013-05-27 05:22:00,76.0,68.0,30.10,East,92,1.0,7.0,77,0.00,,,0.00,,2013-05-27 09:22:00,
2013-05-27 05:33:00,76.0,69.0,30.10,ENE,66,1.0,4.0,78,0.00,,,0.00,,2013-05-27 09:33:00,
2013-05-27 05:42:00,76.0,69.0,30.10,ENE,66,1.0,4.0,78,0.00,,,0.00,,2013-05-27 09:42:00,
2013-05-27 05:53:00,76.0,69.0,30.10,ENE,69,1.0,3.0,80,0.00,,,0.00,,2013-05-27 09:53:00,
2013-05-27 06:03:00,76.0,70.0,30.10,ENE,77,1.0,6.0,81,0.00,,,0.00,,2013-05-27 10:03:00,
2013-05-27 06:12:00,76.0,70.0,30.10,ENE,77,1.0,6.0,81,0.00,,,0.00,,2013-05-27 10:12:00,
2013-05-27 06:22:00,77.0,71.0,30.11,East,99,1.0,3.0,81,0.00,,,0.00,,2013-05-27 10:22:00,
2013-05-27 06:32:00,76.0,70.0,30.11,East,86,0.0,3.0,81,0.00,,,0.00,,2013-05-27 10:32:00,
2013-05-27 06:42:00,76.0,70.0,30.11,East,86,0.0,3.0,81,0.00,,,0.00,,2013-05-27 10:42:00,
2013-05-27 06:52:00,76.0,69.0,30.10,East,83,1.0,6.0,80,0.00,,,0.00,,2013-05-27 10:52:00,
2013-05-27 07:02:00,77.0,70.0,30.11,East,84,1.0,4.0,80,0.00,,,0.00,,2013-05-27 11:02:00,
2013-05-27 07:11:00,77.0,70.0,30.11,East,84,1.0,4.0,80,0.00,,,0.00,,2013-05-27 11:11:00,
2013-05-27 07:22:00,77.0,71.0,30.11,ENE,63,1.0,5.0,81,0.00,,,0.00,,2013-05-27 11:22:00,
2013-05-27 07:32:00,77.0,70.0,30.12,ENE,72,2.0,5.0,80,0.00,,,0.00,,2013-05-27 11:32:00,
2013-05-27 07:42:00,77.0,70.0,30.12,ENE,72,2.0,5.0,80,0.00,,,0.00,,2013-05-27 11:42:00,
2013-05-27 07:52:00,78.0,71.0,30.12,ENE,65,2.0,7.0,79,0.00,,,0.00,,2013-05-27 11:52:00,
2013-05-27 08:01:00,78.0,71.0,30.12,North,353,2.0,9.0,79,0.00,,,0.00,,2013-05-27 12:01:00,
2013-05-27 08:11:00,78.0,71.0,30.12,North,353,2.0,9.0,79,0.00,,,0.00,,2013-05-27 12:11:00,
2013-05-27 08:22:00,80.0,72.0,30.13,NNE,27,1.0,7.0,77,0.00,,,0.00,,2013-05-27 12:22:00,
2013-05-27 08:32:00,80.0,71.0,30.13,East,85,5.0,8.0,75,0.00,,,0.00,,2013-05-27 12:32:00,
2013-05-27 08:42:00,80.0,71.0,30.13,East,85,5.0,8.0,75,0.00,,,0.00,,2013-05-27 12:42:00,
2013-05-27 08:52:00,80.0,72.0,30.13,East,86,2.0,8.0,76,0.00,,,0.00,,2013-05-27 12:52:00,
2013-05-27 09:01:00,81.0,72.0,30.13,East,91,4.0,13.0,75,0.00,,,0.00,,2013-05-27 13:01:00,
2013-05-27 09:11:00,81.0,72.0,30.13,East,91,4.0,13.0,75,0.00,,,0.00,,2013-05-27 13:11:00,
2013-05-27 09:22:00,81.0,72.0,30.13,ENE,67,6.0,11.0,73,0.00,,,0.00,,2013-05-27 13:22:00,
2013-05-27 09:32:00,82.0,72.0,30.13,ESE,103,4.0,12.0,73,0.00,,,0.00,,2013-05-27 13:32:00,
2013-05-27 09:42:00,82.0,72.0,30.13,ESE,103,4.0,12.0,73,0.00,,,0.00,,2013-05-27 13:42:00,
2013-05-27 09:53:00,82.0,72.0,30.13,ENE,76,5.0,12.0,72,0.00,,,0.00,,2013-05-27 13:53:00,
2013-05-27 10:02:00,82.0,72.0,30.13,ENE,72,6.0,11.0,73,0.00,,,0.00,,2013-05-27 14:02:00,
2013-05-27 10:11:00,82.0,72.0,30.13,ENE,72,6.0,11.0,73,0.00,,,0.00,,2013-05-27 14:11:00,
2013-05-27 10:22:00,82.0,72.0,30.14,ESE,103,6.0,12.0,72,0.00,,,0.00,,2013-05-27 14:22:00,
2013-05-27 10:32:00,82.0,73.0,30.14,NNE,32,5.0,13.0,74,0.00,,,0.00,,2013-05-27 14:32:00,
2013-05-27 10:42:00,82.0,73.0,30.14,East,98,5.0,10.0,74,0.00,,,0.00,,2013-05-27 14:42:00,
2013-05-27 10:52:00,82.0,73.0,30.14,East,98,5.0,10.0,74,0.00,,,0.00,,2013-05-27 14:52:00,
2013-05-27 11:01:00,82.0,74.0,30.14,East,100,4.0,12.0,76,0.00,,,0.00,,2013-05-27 15:01:00,
2013-05-27 11:11:00,83.0,73.0,30.14,East,84,4.0,13.0,72,0.00,,,0.00,,2013-05-27 15:11:00,
2013-05-27 11:21:00,83.0,73.0,30.14,East,84,4.0,13.0,72,0.00,,,0.00,,2013-05-27 15:21:00,
2013-05-27 11:33:00,84.0,74.0,30.14,East,84,5.0,10.0,71,0.00,,,0.00,,2013-05-27 15:33:00,
2013-05-27 11:43:00,84.0,74.0,30.14,East,91,3.0,13.0,71,0.00,,,0.00,,2013-05-27 15:43:00,
2013-05-27 11:53:00,84.0,74.0,30.14,East,91,3.0,13.0,71,0.00,,,0.00,,2013-05-27 15:53:00,
2013-05-27 12:03:00,84.0,74.0,30.14,ENE,74,6.0,13.0,71,0.00,,,0.00,,2013-05-27 16:03:00,
2013-05-27 12:12:00,84.0,74.0,30.14,ENE,74,6.0,13.0,71,0.00,,,0.00,,2013-05-27 16:12:00,
2013-05-27 12:23:00,84.0,74.0,30.14,ENE,74,6.0,13.0,71,0.00,,,0.00,,2013-05-27 16:23:00,
2013-05-27 12:33:00,84.0,73.0,30.14,East,82,7.0,13.0,70,0.00,,,0.00,,2013-05-27 16:33:00,
2013-05-27 12:42:00,84.0,73.0,30.14,East,82,7.0,13.0,70,0.00,,,0.00,,2013-05-27 16:42:00,
2013-05-27 12:53:00,84.0,74.0,30.15,East,88,6.0,12.0,71,0.00,,,0.00,,2013-05-27 16:53:00,
2013-05-27 13:02:00,83.0,74.0,30.14,NE,50,5.0,12.0,74,0.00,,,0.00,,2013-05-27 17:02:00,
2013-05-27 13:12:00,84.0,73.0,30.14,ESE,111,6.0,12.0,70,0.00,,,0.00,,2013-05-27 17:12:00,
2013-05-27 13:22:00,84.0,73.0,30.14,ESE,111,6.0,12.0,70,0.00,,,0.00,,2013-05-27 17:22:00,
2013-05-27 13:32:00,85.0,74.0,30.14,NE,53,5.0,17.0,70,0.00,,,0.00,,2013-05-27 17:32:00,
2013-05-27 13:43:00,85.0,74.0,30.14,NE,53,5.0,17.0,70,0.00,,,0.00,,2013-05-27 17:43:00,
2013-05-27 13:52:00,85.0,74.0,30.15,ENE,75,5.0,10.0,69,0.00,,,0.00,,2013-05-27 17:52:00,
2013-05-27 14:02:00,86.0,74.0,30.14,ESE,114,4.0,10.0,67,0.00,,,0.00,,2013-05-27 18:02:00,
2013-05-27 14:11:00,86.0,74.0,30.14,ESE,114,4.0,10.0,67,0.00,,,0.00,,2013-05-27 18:11:00,
2013-05-27 14:22:00,85.0,74.0,30.14,ESE,107,6.0,12.0,70,0.00,,,0.00,,2013-05-27 18:22:00,
2013-05-27 14:32:00,85.0,74.0,30.14,ESE,105,5.0,14.0,69,0.00,,,0.00,,2013-05-27 18:32:00,
2013-05-27 14:42:00,85.0,74.0,30.14,ESE,105,5.0,14.0,69,0.00,,,0.00,,2013-05-27 18:42:00,
2013-05-27 14:52:00,85.0,75.0,30.13,East,98,3.0,9.0,71,0.00,,,0.00,,2013-05-27 18:52:00,
2013-05-27 15:01:00,85.0,74.0,30.13,ENE,60,5.0,12.0,69,0.00,,,0.00,,2013-05-27 19:01:00,
2013-05-27 15:11:00,85.0,74.0,30.13,ENE,60,5.0,12.0,69,0.00,,,0.00,,2013-05-27 19:11:00,
2013-05-27 15:22:00,85.0,74.0,30.13,East,82,7.0,16.0,70,0.00,,,0.00,,2013-05-27 19:22:00,
2013-05-27 15:32:00,84.0,74.0,30.11,SE,127,6.0,10.0,72,0.00,,,0.00,,2013-05-27 19:32:00,
2013-05-27 15:42:00,84.0,74.0,30.11,SE,127,6.0,10.0,72,0.00,,,0.00,,2013-05-27 19:42:00,
2013-05-27 15:52:00,83.0,74.0,30.10,NNE,33,5.0,10.0,74,0.00,,,0.00,,2013-05-27 19:52:00,
2013-05-27 16:02:00,82.0,73.0,30.11,ENE,58,6.0,13.0,74,0.00,,,0.00,,2013-05-27 20:02:00,
2013-05-27 16:11:00,82.0,73.0,30.11,ENE,58,6.0,13.0,74,0.00,,,0.00,,2013-05-27 20:11:00,
2013-05-27 16:22:00,84.0,73.0,30.10,ENE,58,8.0,14.0,70,0.00,,,0.00,,2013-05-27 20:22:00,
2013-05-27 16:32:00,84.0,73.0,30.09,NE,53,5.0,14.0,70,0.00,,,0.00,,2013-05-27 20:32:00,
2013-05-27 16:42:00,84.0,74.0,30.09,East,81,6.0,14.0,71,0.00,,,0.00,,2013-05-27 20:42:00,
2013-05-27 16:53:00,84.0,74.0,30.09,East,81,6.0,14.0,71,0.00,,,0.00,,2013-05-27 20:53:00,
2013-05-27 17:01:00,82.0,73.0,30.08,East,85,5.0,13.0,74,0.00,,,0.00,,2013-05-27 21:01:00,
2013-05-27 17:12:00,82.0,72.0,30.08,ENE,70,6.0,13.0,73,0.00,,,0.00,,2013-05-27 21:12:00,
2013-05-27 17:21:00,82.0,72.0,30.08,ENE,70,6.0,13.0,73,0.00,,,0.00,,2013-05-27 21:21:00,
2013-05-27 17:33:00,82.0,73.0,30.07,East,94,4.0,15.0,75,0.00,,,0.00,,2013-05-27 21:33:00,
2013-05-27 17:43:00,82.0,73.0,30.08,ESE,113,6.0,12.0,74,0.00,,,0.00,,2013-05-27 21:43:00,
2013-05-27 17:53:00,82.0,73.0,30.08,ESE,113,6.0,12.0,74,0.00,,,0.00,,2013-05-27 21:53:00,
2013-05-27 18:02:00,82.0,74.0,30.08,ESE,106,5.0,12.0,76,0.00,,,0.00,,2013-05-27 22:02:00,
2013-05-27 18:12:00,82.0,73.0,30.07,NE,37,3.0,12.0,75,0.00,,,0.00,,2013-05-27 22:12:00,
2013-05-27 18:22:00,82.0,73.0,30.07,NE,37,3.0,12.0,75,0.00,,,0.00,,2013-05-27 22:22:00,
2013-05-27 18:33:00,83.0,74.0,30.07,ESE,108,4.0,13.0,74,0.00,,,0.00,,2013-05-27 22:33:00,
2013-05-27 18:42:00,82.0,73.0,30.07,East,101,7.0,17.0,75,0.00,,,0.00,,2013-05-27 22:42:00,
2013-05-27 18:53:00,82.0,73.0,30.07,East,101,7.0,17.0,75,0.00,,,0.00,,2013-05-27 22:53:00,
2013-05-27 19:02:00,81.0,73.0,30.08,East,84,5.0,12.0,76,0.00,,,0.00,,2013-05-27 23:02:00,
2013-05-27 19:12:00,81.0,73.0,30.08,NE,47,6.0,14.0,76,0.00,,,0.00,,2013-05-27 23:12:00,
2013-05-27 19:22:00,81.0,73.0,30.08,NE,47,6.0,14.0,76,0.00,,,0.00,,2013-05-27 23:22:00,
2013-05-27 19:32:00,81.0,73.0,30.08,ESE,104,5.0,12.0,78,0.00,,,0.00,,2013-05-27 23:32:00,
2013-05-27 19:42:00,81.0,73.0,30.08,ESE,104,5.0,12.0,78,0.00,,,0.00,,2013-05-27 23:42:00,
2013-05-27 19:52:00,81.0,73.0,30.09,NE,55,6.0,10.0,78,0.00,,,0.00,,2013-05-27 23:52:00,
2013-05-27 20:01:00,80.0,73.0,30.09,East,91,4.0,9.0,79,0.00,,,0.00,,2013-05-28 00:01:00,
2013-05-27 20:11:00,80.0,73.0,30.09,East,91,4.0,9.0,79,0.00,,,0.00,,2013-05-28 00:11:00,
2013-05-27 20:22:00,80.0,73.0,30.08,East,98,4.0,14.0,80,0.00,,,0.00,,2013-05-28 00:22:00,
2013-05-27 20:32:00,80.0,74.0,30.09,ENE,75,2.0,9.0,81,0.00,,,0.00,,2013-05-28 00:32:00,
2013-05-27 20:42:00,80.0,74.0,30.09,ENE,75,2.0,9.0,81,0.00,,,0.00,,2013-05-28 00:42:00,
2013-05-27 20:52:00,80.0,74.0,30.09,ENE,75,4.0,10.0,81,0.00,,,0.00,,2013-05-28 00:52:00,
2013-05-27 21:01:00,80.0,74.0,30.09,NNE,26,4.0,9.0,81,0.00,,,0.00,,2013-05-28 01:01:00,
2013-05-27 21:11:00,80.0,74.0,30.09,NNE,26,4.0,9.0,81,0.00,,,0.00,,2013-05-28 01:11:00,
2013-05-27 21:22:00,80.0,74.0,30.09,ENE,58,2.0,9.0,81,0.00,,,0.00,,2013-05-28 01:22:00,
2013-05-27 21:32:00,79.0,73.0,30.09,East,92,5.0,14.0,82,0.00,,,0.00,,2013-05-28 01:32:00,
2013-05-27 21:42:00,79.0,73.0,30.09,East,92,5.0,14.0,82,0.00,,,0.00,,2013-05-28 01:42:00,
2013-05-27 21:52:00,80.0,74.0,30.09,East,88,4.0,12.0,82,0.00,,,0.00,,2013-05-28 01:52:00,
2013-05-27 22:02:00,80.0,74.0,30.10,East,92,5.0,13.0,81,0.00,,,0.00,,2013-05-28 02:02:00,
2013-05-27 22:11:00,80.0,74.0,30.10,East,92,5.0,13.0,81,0.00,,,0.00,,2013-05-28 02:11:00,
2013-05-27 22:22:00,79.0,73.0,30.11,ESE,117,5.0,11.0,82,0.00,,,0.00,,2013-05-28 02:22:00,
2013-05-27 22:32:00,79.0,73.0,30.11,ESE,108,3.0,11.0,82,0.00,,,0.00,,2013-05-28 02:32:00,
2013-05-27 22:42:00,79.0,73.0,30.11,ESE,108,3.0,11.0,82,0.00,,,0.00,,2013-05-28 02:42:00,
2013-05-27 22:52:00,79.0,73.0,30.11,ENE,71,3.0,10.0,82,0.00,,,0.00,,2013-05-28 02:52:00,
2013-05-27 23:01:00,79.0,73.0,30.11,ESE,107,3.0,11.0,83,0.00,,,0.00,,2013-05-28 03:01:00,
2013-05-27 23:11:00,79.0,73.0,30.11,ESE,107,3.0,11.0,83,0.00,,,0.00,,2013-05-28 03:11:00,
2013-05-27 23:22:00,79.0,73.0,30.11,ENE,64,3.0,10.0,82,0.00,,,0.00,,2013-05-28 03:22:00,
2013-05-27 23:33:00,79.0,73.0,30.12,East,85,4.0,11.0,82,0.00,,,0.00,,2013-05-28 03:33:00,
2013-05-27 23:43:00,79.0,73.0,30.12,East,85,4.0,11.0,82,0.00,,,0.00,,2013-05-28 03:43:00,
2013-05-27 23:53:00,79.0,74.0,30.11,East,92,3.0,8.0,84,0.00,,,0.00,,2013-05-28 03:53:00,